User: anonymous   Login
Location: Unspecified
(0.0000°N, 0.0000°E)
Time: 10:35:33
(UTC+00:00)
Language:

DANDE - Orbit

View from above orbital plane
View from above orbital plane
View from above satellite
View from above satellite

Ground track
Ground track

The orbit is defined by the following mean orbital elements,

1 39267U          26145.16209154 +.00000000 +00000-0 +27909-3 0 00006
2 39267  80.9895 198.2501 0463473 354.4720   5.1460 14.79361735    08
Epoch (UTC): 25 May 2026 03:53:24
Eccentricity: 0.0463473
inclination: 80.9895°
perigee height: 306 km
apogee height: 956 km
right ascension of ascending node: 198.2501°
argument of perigee: 354.4720°
revolutions per day: 14.79361735
mean anomaly at epoch: 5.1460°

The dashed part of the orbit path shows where the satellite is in the earth's shadow,  

DLR